This is the latest recevied weather packets stored in our database for station/object PY5KT-13. If no packets are shown the sender has not sent any weather packets the latest 10 day(s).
| Time | Temp. | Humidity | Pressure | Rain* | Wind** | Luminosity | Snow |
|---|---|---|---|---|---|---|---|
| 1778183053 | 25° C | 56% | 1012.9 hPa | 0 mm | - | 122 W/m² | - |
| 1778182751 | 25° C | 56% | 1013 hPa | 0 mm | - | 163 W/m² | - |
| 1778182450 | 25° C | 55% | 1013 hPa | 0 mm | - | 143 W/m² | - |
| 1778182147 | 25° C | 53% | 1013.1 hPa | 0 mm | - | 109 W/m² | - |
| 1778181846 | 25° C | 53% | 1013 hPa | 0 mm | - | 91 W/m² | - |
| 1778181543 | 25.56° C | 53% | 1013 hPa | 0 mm | - | 111 W/m² | - |
| 1778181242 | 25.56° C | 53% | 1013.1 hPa | 0 mm | - | 106 W/m² | - |
| 1778180940 | 25.56° C | 52% | 1013.1 hPa | 0 mm | - | 93 W/m² | - |
| 1778180639 | 26.67° C | 48% | 1013.2 hPa | 0 mm | - | 87 W/m² | - |
| 1778180337 | 27.22° C | 47% | 1013.2 hPa | 0 mm | - | 106 W/m² | - |
| 1778180035 | 27.78° C | 45% | 1013.3 hPa | 0 mm | - | 163 W/m² | - |
| 1778179733 | 27.78° C | 46% | 1013.4 hPa | 0 mm | - | 228 W/m² | - |
| 1778179431 | 27.22° C | 46% | 1013.4 hPa | 0 mm | - | 303 W/m² | - |
| 1778179129 | 26.67° C | 47% | 1013.3 hPa | 0 mm | - | 344 W/m² | - |
| 1778178828 | 27.22° C | 46% | 1013.4 hPa | 0 mm | - | 254 W/m² | - |
| 1778178526 | 27.78° C | 46% | 1013.4 hPa | 0 mm | - | 372 W/m² | - |
| 1778178224 | 27.78° C | 45% | 1013.4 hPa | 0 mm | - | 386 W/m² | - |
| 1778177922 | 27.78° C | 45% | 1013.4 hPa | 0 mm | - | 393 W/m² | - |
| 1778177621 | 28.33° C | 45% | 1013.5 hPa | 0 mm | - | 385 W/m² | - |
| 1778177319 | 27.22° C | 46% | 1013.5 hPa | 0 mm | - | 397 W/m² | - |
| 1778177017 | 28.33° C | 44% | 1013.5 hPa | 0 mm | - | 352 W/m² | - |
| 1778176715 | 28.33° C | 44% | 1013.6 hPa | 0 mm | - | 396 W/m² | - |
| 1778176414 | 27.22° C | 44% | 1013.6 hPa | 0 mm | - | 388 W/m² | - |
| 1778176112 | 27.78° C | 43% | 1013.6 hPa | 0 mm | - | 422 W/m² | - |
| 1778175810 | 27.78° C | 42% | 1013.7 hPa | 0 mm | - | 422 W/m² | - |
* Rain latest hour (hover to see other rain measurements)
** Current wind speed in m/s (hover to see current wind gust speed)